Temp
3 3 3 3 4 4 4 4 4 4 4 4 4 4 4 4 4 4 5 5 5 5 7 11 14 14 14 14 13 12 12 11 11 11 11 11 12 15 15 17 15 14 13 13 12 12 14 18 17 16 17 17 15 15
3 3 3 3 4 4 4 4 4 4 4 4 4 4 4 4 4 4 5 5 4 4 6 7 9 11 12 15 15 12 13 13 13 11 11 11 12 15 16 16 16 16 18 18 17 18 20 19 17 17 16 15 15 14
3 3 3 3 4 4 4 3 4 4 4 4 4 4 4 4 4 4 4 4 4 4 7 8 12 12 11 11 12 14 12 12 13 12 11 11 12 12 13 16 17 17 17 16 17 19 19 19 18 16 14 13 13 13
2 2 3 3 3 3 3 3 3 4 4 3 4 4 4 3 3 3 4 4 4 3 6 10 10 11 9 10 11 12 13 11 11 10 10 10 11 14 14 15 15 17 15 17 17 19 19 17 16 14 12 12 12 12
2 2 3 3 3 3 3 4 3 3 3 3 3 3 4 3 3 3 4 4 4 5 6 8 10 8 8 10 11 11 13 13 11 10 10 11 11 13 15 14 15 17 17 17 18 18 18 17 14 13 12 11 11 10
2 2 2 3 3 3 3 3 3 3 3 3 3 3 3 3 3 3 5 4 4 4 5 9 10 9 9 9 10 11 12 11 10 10 10 11 12 12 12 14 18 19 19 19 19 16 15 14 12 12 11 10 10 9
2 2 2 2 3 3 3 3 3 3 3 3 3 3 3 3 3 3 4 3 3 3 5 8 10 10 9 10 10 9 10 10 10 10 10 11 11 10 12 13 18 18 18 17 16 15 14 13 13 11 10 9 9 9
2 2 2 2 3 3 3 3 3 3 3 3 3 2 2 3 3 3 4 3 3 3 5 8 10 10 9 10 11 10 10 10 10 10 10 10 10 11 12 14 16 17 17 16 15 14 13 12 11 10 9 8 8 8
2 2 2 2 2 3 3 3 3 3 3 2 3 4 3 4 5 4 3 3 3 4 6 8 9 10 9 11 11 10 11 11 11 11 11 10 11 11 14 15 16 17 15 15 12 11 11 11 10 9 9 9 8 8
2 2 2 2 2 3 2 2 3 2 2 2 3 4 4 4 3 3 3 4 4 5 5 9 11 10 11 11 12 12 11 11 11 12 10 10 11 14 15 16 16 15 15 11 9 7 6 6 7 9 9 10 9 8
2 2 2 2 3 3 2 3 2 2 2 3 3 3 3 3 3 4 5 5 6 7 8 10 12 12 11 11 12 11 10 9 11 11 11 12 13 15 13 12 12 12 14 12 13 13 10 11 10 9 10 10 8 7
2 2 2 2 2 2 3 2 2 2 2 2 1 1 2 2 3 5 6 5 7 8 9 10 11 12 10 10 11 10 10 9 10 10 10 11 13 11 11 10 9 9 12 12 11 11 11 11 10 10 9 8 7 6
2 2 2 2 2 2 2 2 2 2 2 2 3 2 3 5 6 7 8 7 7 6 5 6 8 10 9 9 9 10 9 10 9 9 10 12 12 11 9 8 8 8 10 10 9 9 10 9 9 8 7 7 5 4
2 2 2 2 2 2 2 2 2 2 2 3 2 5 5 6 6 5 5 5 5 4 5 6 7 8 8 9 10 9 10 9 9 9 10 11 10 8 8 7 7 8 8 8 7 7 6 6 6 6 5 4 4 3
2 2 2 2 2 2 2 2 2 2 3 3 2 5 5 4 4 4 3 4 3 4 4 6 6 8 7 8 9 9 8 9 10 11 11 9 7 7 7 7 7 7 6 6 5 5 5 4 5 3 3 3 3 2
2 2 2 3 2 2 2 2 2 2 2 2 2 3 4 3 4 4 4 4 4 4 4 4 6 8 8 9 8 9 9 9 11 7 7 6 6 6 6 6 6 6 6 6 5 5 4 4 4 3 3 2 2 2
2 2 3 2 2 2 2 1 1 2 2 2 3 3 4 3 3 4 5 5 5 4 6 5 7 10 6 8 8 9 8 7 5 4 5 4 3 4 4 4 4 4 5 5 4 4 4 3 2 3 2 1 0 0
1 2 3 2 2 1 1 1 1 1 1 3 2 3 3 3 3 4 4 5 4 4 4 5 3 6 8 8 8 6 5 3 4 4 4 4 4 3 3 3 3 3 4 3 3 1 1 1 2 2 -0 -1 -2 -2
1 1 2 2 2 1 1 0 -0 0 1 2 2 2 2 2 2 2 2 3 3 4 3 3 5 6 8 4 3 3 2 2 2 2 3 5 3 2 1 1 0 1 1 1 1 1 1 2 1 -1 -1 -1 -1 -2
1 1 1 1 2 0 0 -1 -2 0 0 1 1 -0 0 1 1 -0 -1 -0 2 3 3 3 5 3 2 1 -0 0 1 1 1 1 3 6 5 1 1 -0 1 0 1 1 1 1 -0 -1 -1 -1 -0 -1 -2 -2
1 -0 -0 1 -0 -1 -0 -1 -1 -1 -0 -0 -0 -1 -1 -1 -1 -1 -0 -0 1 3 4 5 3 1 -0 -1 -1 -1 -1 0 1 1 1 1 2 3 1 1 -1 0 1 1 1 0 0 -0 -1 -1 -1 -1 -2 -3
-0 -0 -1 -0 -1 -3 -1 -2 -1 -2 -2 -2 -2 -2 -2 -1 -0 -1 -3 -1 -0 3 3 2 1 -0 -0 -0 -1 -2 -2 -2 -1 -1 0 1 1 2 2 1 -1 0 1 1 1 1 0 -1 -1 -1 -2 -3 -4 -4
-1 -1 -1 -2 -1 -2 -2 -4 -2 -3 -1 -2 -4 -3 -2 -2 -2 -4 -2 0 1 1 0 -1 -3 -4 -4 -4 -4 -3 -3 -2 -1 -1 -1 -0 -0 -0 0 -0 -1 -0 -0 -1 -0 -1 -2 -2 -2 -3 -3 -4 -4 -4
-0 -1 -0 -0 -0 -1 -3 -3 -3 -3 -3 -2 -2 -1 -2 -2 -4 -2 -0 1 1 -1 -2 -4 -4 -3 -1 -3 -2 -1 -3 -3 -3 -3 -2 -2 -2 -1 -1 -1 -0 -1 -1 -1 -2 -2 -2 -3 -3 -3 -4 -4 -4 -5
-0 -1 -2 -2 -5 -3 -2 -3 -4 -3 -2 -3 -2 -2 -3 -4 -1 -1 -1 0 -2 -1 -2 -3 -4 -4 -3 -3 -3 -3 -4 -5 -4 -4 -4 -4 -4 -2 -2 -2 -2 -2 -2 -2 -3 -3 -3 -3 -4 -4 -4 -4 -5 -6
1 -2 -2 -1 -3 -2 -1 -2 -3 -2 -2 -4 -3 -4 -5 -2 -2 -2 -0 0 -0 -1 -2 -3 -2 -3 -3 -3 -4 -4 -5 -6 -6 -6 -6 -6 -4 -3 -3 -2 -3 -3 -4 -2 -3 -3 -3 -4 -4 -4 -5 -5 -5 -6
1 -1 -3 -2 -1 -2 -2 -3 -3 -2 -3 -3 -3 -5 -3 -3 -2 -0 -0 -2 -2 -4 -5 -5 -6 -6 -6 -6 -7 -7 -8 -8 -8 -8 -8 -8 -7 -7 -6 -4 -2 -3 -4 -4 -3 -3 -4 -4 -5 -5 -6 -5 -6 -6
0 -0 -2 -3 -3 -4 -3 -3 -3 -3 -2 -3 -2 -4 -3 -2 -0 0 -1 -5 -6 -6 -7 -8 -8 -9 -10 -10 -10 -10 -10 -10 -9 -9 -9 -8 -7 -7 -6 -5 -4 -3 -3 -4 -4 -4 -4 -5 -5 -6 -6 -7 -8 -8
-1 -2 -2 -4 -5 -5 -4 -2 -2 -2 -2 -3 -2 -1 -2 -2 -3 -4 -6 -7 -8 -9 -10 -9 -9 -10 -11 -11 -11 -10 -10 -10 -9 -8 -8 -7 -5 -4 -5 -5 -4 -4 -4 -4 -5 -5 -5 -6 -6 -7 -8 -8 -9 -8
-3 -2 -2 -5 -5 -3 -3 -5 -5 -8 -7 -5 -6 -5 -5 -6 -7 -7 -8 -10 -11 -10 -9 -10 -11 -12 -11 -11 -10 -10 -9 -9 -9 -8 -7 -7 -5 -5 -5 -5 -4 -5 -5 -5 -6 -6 -6 -6 -8 -9 -10 -10 -10 -10
-4 -4 -4 -3 -3 -7 -10 -12 -11 -7 -9 -9 -11 -8 -6 -8 -8 -9 -10 -11 -11 -11 -12 -10 -10 -10 -11 -11 -10 -10 -10 -9 -8 -8 -8 -8 -7 -7 -6 -5 -5 -5 -6 -6 -6 -6 -8 -10 -10 -10 -10 -11 -10 -10
-4 -3 -4 -5 -6 -11 -12 -10 -9 -8 -9 -9 -7 -12 -10 -8 -7 -6 -10 -11 -11 -10 -9 -10 -11 -10 -10 -10 -10 -10 -10 -10 -10 -9 -9 -8 -7 -7 -6 -6 -6 -6 -6 -8 -9 -9 -9 -10 -10 -11 -11 -11 -10 -10
-8 -9 -9 -8 -8 -9 -11 -9 -9 -9 -10 -9 -9 -10 -10 -9 -7 -7 -10 -10 -10 -11 -11 -10 -10 -10 -9 -9 -9 -8 -8 -9 -9 -8 -8 -7 -7 -7 -7 -7 -7 -8 -8 -9 -9 -10 -10 -10 -11 -11 -11 -12 -11 -11
Height
800 798 795 793 790 788 784 781 780 776 769 766 764 762 759 756 752 748 743 740 739 737 727 719 713 711 713 712 715 721 724 725 726 728 729 725 719 703 703 692 702 706 713 714 718 718 702 672 672 677 673 670 672 671
797 795 792 790 788 784 781 778 776 773 768 764 762 761 758 755 752 749 746 743 741 741 730 723 718 716 715 711 712 718 717 718 720 727 728 726 721 706 698 695 691 697 684 683 687 676 665 668 672 669 671 673 671 674
792 791 789 787 784 781 778 775 771 769 765 762 760 759 756 753 751 750 746 743 741 738 726 720 712 713 714 714 715 714 718 719 719 722 726 724 719 715 707 693 688 685 683 686 684 665 666 664 666 671 675 674 674 676
789 788 785 783 781 778 774 772 768 765 762 757 756 755 753 751 748 747 744 743 742 741 730 713 712 712 713 713 714 714 715 719 722 724 725 724 722 707 699 694 692 684 687 681 677 667 662 668 672 675 678 678 677 678
785 783 782 779 776 774 772 769 765 761 757 753 752 751 748 746 744 741 738 737 737 739 726 716 712 712 712 713 714 715 715 717 720 723 722 718 715 710 698 698 687 678 675 678 670 667 669 671 677 678 678 681 683 684
781 779 777 776 772 770 768 765 762 756 752 747 746 745 742 741 741 739 731 729 731 735 731 715 710 711 712 713 713 714 715 718 720 718 718 713 708 710 700 685 667 663 663 665 666 671 674 678 681 681 682 685 687 689
777 774 773 771 769 766 764 761 758 753 747 742 739 737 733 733 735 736 731 731 732 733 729 717 707 710 711 712 714 716 717 717 717 717 715 711 707 707 696 683 665 662 663 666 670 674 676 679 678 685 687 689 693 695
772 770 769 767 766 763 759 757 753 747 741 737 732 728 724 724 728 731 731 730 731 729 726 715 706 707 711 710 710 713 713 715 714 711 709 708 704 699 687 670 666 663 663 667 670 674 677 679 684 688 692 694 696 700
768 766 765 764 761 758 755 753 748 743 736 732 728 725 725 725 725 726 728 728 728 730 721 710 708 704 709 706 708 712 710 707 707 705 703 704 692 687 666 666 662 660 665 665 672 677 680 681 685 689 692 695 697 702
765 762 760 760 757 754 752 750 744 739 732 729 728 726 726 726 726 726 728 725 725 722 721 708 702 703 705 702 702 704 707 705 703 696 702 698 683 665 659 660 661 662 665 673 678 685 686 687 688 688 690 694 698 703
760 758 756 755 752 751 749 747 741 736 731 732 730 729 728 725 725 724 720 719 717 714 709 703 698 697 705 702 698 705 707 711 702 698 698 684 670 657 662 663 665 665 664 669 668 669 674 675 680 685 689 694 699 705
756 754 752 750 749 748 746 744 741 737 736 736 735 732 729 727 724 719 713 715 708 705 705 700 701 700 705 707 702 708 708 711 702 705 703 689 664 665 668 668 668 667 663 665 668 668 670 673 677 683 688 695 701 706
750 750 748 746 745 744 742 741 738 736 735 735 734 732 728 723 714 706 705 711 707 715 716 713 708 706 708 708 708 708 708 706 708 706 693 674 665 668 671 671 669 668 666 667 670 670 671 675 679 684 689 696 702 709
746 746 744 743 742 741 740 739 735 735 735 734 733 723 720 715 716 717 717 718 720 721 718 716 711 709 710 709 706 708 708 709 706 704 688 676 678 679 676 674 672 670 670 672 673 674 676 679 684 688 692 696 702 708
742 741 740 739 737 737 738 736 734 735 735 732 733 719 720 721 722 722 723 722 722 720 719 715 714 710 713 712 708 711 711 706 697 685 682 688 688 685 681 679 677 675 674 676 678 679 681 683 687 692 697 700 705 710
737 737 734 734 734 736 734 734 733 734 733 732 732 727 725 726 722 721 722 721 721 720 719 718 713 710 708 706 710 706 705 697 687 701 699 696 693 689 686 684 682 681 679 678 679 682 684 686 689 694 700 704 709 713
733 732 733 733 733 733 732 733 732 732 730 729 724 723 721 727 725 723 722 721 722 721 714 716 708 697 715 706 706 699 698 700 708 706 703 701 698 694 690 688 686 685 684 683 682 683 686 689 693 696 701 707 712 716
727 729 731 731 731 731 731 732 731 730 728 725 724 721 721 724 726 724 723 725 725 723 721 716 721 711 702 699 696 703 710 712 710 706 703 699 697 695 693 690 687 687 687 687 687 688 689 691 693 698 703 708 713 720
724 727 728 728 730 731 731 732 732 728 726 726 725 725 724 725 726 728 729 727 726 725 725 720 714 703 696 710 714 716 717 716 713 708 703 698 698 695 693 693 691 689 690 691 691 691 693 694 694 698 703 708 713 720
721 723 725 727 729 729 730 732 732 728 726 727 727 730 727 724 727 729 730 731 726 724 722 718 708 713 715 720 722 721 719 717 714 707 701 696 696 696 694 692 692 691 691 693 694 694 695 698 701 702 704 707 713 720
718 720 722 725 727 728 730 730 730 729 728 728 729 731 729 728 729 729 728 729 726 719 713 706 711 717 720 720 720 719 717 715 713 710 705 699 698 696 695 692 690 692 692 693 694 695 697 697 701 704 707 710 714 719
714 716 720 724 727 729 729 730 728 731 732 730 731 734 731 726 724 729 732 728 722 711 711 711 714 717 717 716 716 716 714 713 710 707 704 700 695 693 690 691 690 688 691 692 693 694 696 698 701 705 708 712 717 721
713 716 720 725 727 728 729 730 729 731 727 729 735 731 727 727 727 732 727 718 711 711 712 714 717 718 718 716 714 712 711 709 706 704 702 699 695 693 689 689 689 685 685 690 692 693 696 698 701 705 710 714 717 724
710 716 720 720 720 721 728 728 731 731 731 729 727 722 725 726 730 725 717 707 706 710 712 714 716 715 713 713 710 707 707 706 704 701 698 696 692 688 687 685 684 682 680 682 690 692 695 698 701 704 709 714 718 722
711 718 720 720 726 724 721 725 728 727 721 728 725 722 726 729 721 718 714 703 706 706 707 710 712 713 711 707 705 703 703 703 701 697 695 694 691 686 683 681 680 680 679 678 684 689 693 697 700 703 707 712 716 723
702 710 712 705 713 712 709 715 722 719 719 726 724 729 732 723 724 713 703 696 697 699 701 703 704 705 703 702 700 698 698 698 697 694 689 689 686 684 680 677 677 675 677 675 676 683 689 693 697 702 707 713 718 722
693 700 705 705 704 709 711 714 715 715 719 717 718 726 722 723 713 699 693 694 694 695 697 698 700 700 697 695 695 693 692 691 690 687 684 682 681 679 678 675 670 671 670 672 671 675 682 688 694 699 706 714 718 721
685 690 697 702 705 709 708 710 710 710 706 708 711 719 715 707 695 687 689 692 692 694 694 694 694 693 692 690 688 687 684 683 681 679 676 672 669 667 666 666 665 664 665 668 669 674 679 683 690 696 704 711 719 725
685 690 693 704 708 709 704 699 697 696 697 701 700 697 696 693 689 689 690 690 691 691 691 690 688 688 686 684 681 678 677 676 675 671 669 666 663 660 659 658 658 659 661 665 669 671 676 682 687 694 701 710 717 724
682 685 689 700 702 697 693 698 698 703 702 701 702 698 696 691 688 687 686 687 688 687 686 685 684 684 681 678 674 671 670 668 666 665 662 660 658 657 656 655 655 656 659 664 668 671 678 685 690 696 704 712 718 725
682 686 690 690 690 699 705 707 706 704 705 705 706 703 696 696 687 682 682 682 683 683 682 681 680 678 676 673 671 667 662 659 657 657 657 655 655 654 654 653 654 655 659 664 668 671 675 685 691 697 707 713 720 725
680 681 686 690 695 708 709 707 706 704 705 704 700 707 702 699 692 680 679 680 680 679 679 679 677 674 672 668 665 662 659 656 653 651 649 648 648 649 651 652 653 656 659 664 670 673 676 687 695 702 709 715 723 730
689 692 696 696 700 703 708 706 706 704 706 702 700 703 702 698 689 679 677 676 677 677 677 675 673 671 669 665 662 657 654 650 647 646 644 644 645 647 649 652 654 657 661 668 673 676 681 690 699 706 713 721 728 733
Wind_Speed
16 16 17 16 18 15 16 16 17 15 15 16 18 20 19 18 20 18 10 8 5 3 7 5 9 4 2 5 3 4 3 1 2 1 1 2 2 1 3 2 5 8 6 4 4 4 6 2 2 4 6 7 5 3
17 17 17 16 18 15 16 16 16 17 15 15 16 18 20 17 16 15 6 10 6 2 4 9 17 12 7 6 1 3 3 2 1 2 3 1 2 3 4 3 4 5 7 2 6 3 5 7 8 9 6 8 6 4
16 16 17 17 18 17 16 18 16 17 17 16 17 18 18 18 15 14 11 10 5 3 4 3 6 6 5 3 1 3 2 1 3 2 1 1 5 1 3 6 4 6 5 4 4 3 6 9 5 2 5 5 3 1
17 17 17 17 18 17 18 18 17 17 18 17 18 20 19 18 17 15 13 10 8 2 3 0 1 2 2 4 3 1 4 5 3 1 2 2 3 4 3 4 5 3 4 4 9 14 9 4 5 3 3 3 5 6
18 17 17 17 18 17 18 19 18 18 18 18 20 21 21 19 18 19 17 15 15 4 2 3 5 1 1 2 6 4 5 4 2 2 3 3 2 4 6 4 9 8 8 6 6 5 5 5 4 2 5 6 6 9
19 18 18 18 17 18 18 20 19 19 20 20 22 24 22 19 17 12 3 2 8 13 2 2 2 2 2 3 3 3 3 2 2 2 2 2 4 2 3 5 11 11 14 12 9 3 3 2 3 3 7 8 9 11
19 17 18 18 18 19 18 19 21 21 22 23 26 28 26 21 15 7 1 4 4 7 2 2 1 2 3 3 2 1 3 1 1 2 3 2 2 2 3 9 6 4 5 7 4 3 3 6 2 6 9 11 13 13
18 18 18 17 18 20 18 19 20 22 24 27 30 24 14 5 4 8 13 12 7 4 2 2 1 3 5 2 3 3 2 2 3 2 2 3 2 2 5 12 13 14 13 5 6 5 2 8 9 10 10 12 14 13
19 18 18 17 17 19 19 20 20 23 24 28 20 2 2 1 3 2 5 1 6 3 2 1 3 2 3 2 1 2 2 3 2 2 3 1 3 6 10 7 7 6 6 5 5 5 6 9 10 12 12 12 14 13
20 18 18 18 16 18 18 19 20 22 25 17 6 3 1 3 10 1 3 3 4 3 3 2 2 2 4 2 3 2 2 2 2 1 2 3 5 14 15 13 8 5 4 8 6 3 2 3 9 12 13 11 12 13
19 19 18 15 15 17 16 18 18 22 11 5 4 2 5 8 1 2 2 3 3 2 3 2 3 1 2 2 2 1 1 0 2 0 2 2 4 3 4 6 5 5 9 11 7 3 11 10 13 13 12 11 11 14
19 18 17 14 15 15 14 15 16 12 5 6 9 6 3 2 2 3 2 1 3 1 1 1 2 1 2 1 1 1 1 1 3 2 2 3 4 3 5 8 8 7 7 9 7 5 8 9 12 12 12 12 14 17
19 18 17 14 15 14 13 12 15 8 6 2 2 2 2 2 1 1 1 1 1 4 4 3 0 1 2 1 1 1 2 2 1 2 3 4 4 5 5 5 6 4 2 5 4 4 6 8 14 15 14 18 21 20
19 19 17 15 14 13 10 12 10 2 2 1 2 2 2 1 1 1 1 1 1 1 4 3 1 0 1 1 0 1 1 2 2 3 4 3 7 9 8 5 5 2 2 3 5 7 9 10 10 14 17 22 23 20
19 18 16 16 14 9 12 13 2 1 2 2 2 2 2 1 1 0 1 1 0 2 2 1 1 1 1 1 1 1 1 4 4 3 3 7 11 9 10 8 7 2 2 4 4 6 8 10 11 13 16 18 20 23
17 13 16 14 8 8 12 5 3 2 1 2 2 2 1 2 1 0 1 2 1 4 1 1 1 1 3 2 3 6 3 5 0 3 6 9 11 12 11 10 8 5 1 3 4 7 10 10 11 15 18 18 19 21
11 5 4 7 5 9 6 2 2 2 2 3 3 2 2 1 2 1 3 2 4 3 0 0 3 3 1 3 3 4 4 2 5 6 6 7 9 11 10 8 6 5 2 3 7 9 10 14 19 19 13 16 19 20
10 7 8 7 6 6 1 1 2 3 4 4 2 3 2 1 2 2 1 2 3 2 2 1 1 3 4 3 2 2 3 5 5 5 8 9 10 9 7 8 5 5 3 2 5 9 14 15 11 9 19 22 23 22
14 12 12 8 3 1 1 1 1 2 3 1 1 1 2 1 2 3 3 3 3 2 3 2 4 3 2 3 2 3 5 5 7 8 10 9 7 7 8 8 5 3 2 2 6 8 10 12 13 19 20 21 18 19
15 13 12 9 4 2 1 1 1 2 1 0 2 2 2 0 2 2 2 2 2 2 3 3 3 1 1 1 1 4 5 6 8 9 8 6 9 9 5 4 4 2 2 4 5 9 11 11 12 17 19 21 22 19
14 11 12 7 2 2 1 2 1 1 0 1 0 2 1 1 1 0 1 1 2 2 3 4 2 2 1 3 6 7 6 7 7 7 9 8 9 12 10 6 2 4 4 6 5 7 10 10 15 16 20 19 21 22
6 14 5 3 2 1 1 1 1 2 1 1 1 1 2 2 2 2 1 3 3 3 2 2 1 1 3 3 5 9 12 13 14 14 16 15 8 6 5 6 5 3 4 6 8 8 9 14 17 19 19 21 22 25
12 7 4 3 2 3 2 0 3 2 2 2 1 2 2 2 1 1 2 4 3 1 3 2 2 2 4 9 8 11 10 11 6 8 12 12 14 14 11 10 11 7 5 7 10 11 13 18 20 20 22 23 25 24
9 3 3 4 4 3 3 2 1 2 1 2 2 2 2 1 1 2 3 2 2 3 4 4 2 3 4 6 5 6 9 9 12 13 13 12 8 8 12 11 13 13 13 15 14 14 17 18 22 23 23 23 23 24
5 4 4 4 1 3 4 4 3 3 3 3 3 2 2 1 2 3 4 2 3 4 6 5 4 5 4 6 6 8 6 9 8 8 13 13 14 15 12 10 12 12 17 19 17 18 18 20 20 23 24 24 24 24
5 5 7 7 4 4 5 5 5 5 3 3 4 1 1 2 2 5 3 3 4 4 6 6 6 5 6 7 7 7 10 8 11 9 16 16 14 10 7 7 5 7 17 20 23 22 22 22 23 24 23 25 27 27
6 6 3 2 2 3 2 2 2 2 4 5 4 5 3 3 5 3 1 3 3 5 7 7 7 7 7 10 14 16 15 14 15 18 20 21 22 21 19 14 8 11 18 21 23 27 27 26 26 26 25 24 25 27
2 5 7 6 3 0 4 3 5 6 4 4 6 5 6 7 4 2 2 3 5 6 7 10 13 15 15 17 17 16 17 18 19 20 21 22 24 23 21 21 21 20 18 25 24 26 28 30 30 30 29 27 23 23
4 4 5 4 2 3 5 7 4 3 2 4 5 4 4 3 1 1 3 5 6 6 6 8 8 9 13 17 18 19 18 14 9 11 12 8 6 8 11 14 17 18 22 24 25 29 33 33 34 34 33 31 29 30
5 5 3 4 6 6 2 1 0 1 1 1 2 2 2 3 4 7 8 7 5 7 7 8 11 9 9 9 10 15 15 16 18 15 8 8 7 7 11 11 15 22 25 25 26 30 31 33 33 33 33 30 31 31
5 3 3 3 3 1 2 2 2 0 1 1 1 2 3 4 6 6 7 7 7 6 6 7 8 8 10 10 9 7 9 12 12 16 19 19 18 15 13 12 19 24 27 27 29 30 34 30 30 32 29 29 29 31
3 4 4 4 2 1 0 0 0 1 1 1 1 0 2 2 4 2 4 5 2 3 4 7 7 10 16 17 19 19 19 22 22 22 20 18 16 14 14 19 24 26 28 30 32 34 36 33 30 30 32 32 32 30
3 2 2 3 2 2 1 1 0 2 1 2 2 1 1 2 5 2 3 6 4 4 5 8 11 13 13 13 13 14 12 13 12 10 7 9 12 17 22 25 29 32 32 30 30 34 36 36 34 33 33 32 29 29
Wind_Direction
304 309 311 311 318 322 322 324 324 332 345 348 347 343 345 348 347 355 315 356 38 321 287 296 262 232 167 194 187 139 180 190 152 170 236 230 268 273 273 224 177 181 185 200 189 233 270 47 272 321 348 326 323 290
300 308 307 308 315 321 317 318 319 321 331 335 336 334 336 340 342 347 322 331 322 221 275 298 283 279 307 324 300 164 350 121 115 170 215 287 261 271 280 270 216 237 221 306 217 224 332 316 284 318 333 301 297 268
297 303 304 305 313 319 316 314 315 316 322 325 325 321 323 328 331 328 310 307 310 276 268 248 220 198 229 253 248 222 180 172 205 61 37 270 257 209 262 241 267 232 225 242 306 171 298 305 304 9 339 305 294 253
294 297 301 300 310 317 315 312 314 315 318 320 318 313 313 316 314 313 298 285 282 261 272 263 332 205 239 232 242 313 114 108 91 122 199 248 255 227 257 303 280 333 165 246 261 277 293 81 33 29 54 70 101 101
287 292 296 297 307 308 315 311 311 314 315 319 314 307 305 307 307 305 288 266 239 254 304 286 298 185 314 220 215 207 205 189 161 196 218 223 229 253 238 286 256 216 230 222 275 12 322 13 31 53 101 98 101 111
283 291 296 296 301 307 313 311 311 313 314 318 311 304 302 298 299 304 300 183 193 192 260 273 58 145 154 162 166 193 209 187 201 211 229 242 222 219 259 248 254 241 231 256 276 50 38 72 77 89 111 113 115 114
280 291 297 294 301 310 312 311 310 314 318 317 312 305 298 288 266 222 289 96 109 190 244 271 188 119 134 125 121 143 171 206 230 222 223 248 255 229 251 248 270 306 272 239 225 179 215 193 169 132 121 113 111 109
277 289 295 291 300 309 315 312 313 317 323 321 318 314 309 260 186 225 250 273 255 257 244 269 148 175 180 148 180 174 199 186 203 244 214 226 240 241 253 240 253 258 249 238 215 203 29 120 130 128 130 131 123 120
275 284 294 289 297 309 318 315 316 321 328 324 319 342 137 138 165 76 173 198 230 265 283 236 167 177 179 146 140 179 267 232 164 245 219 239 200 224 241 270 281 263 219 268 136 167 157 157 153 150 152 150 134 136
274 282 291 287 299 312 315 317 323 327 330 327 346 13 29 48 304 277 121 206 199 208 220 258 278 147 197 146 179 194 197 277 268 225 309 241 255 253 260 266 280 297 213 151 146 179 133 123 164 166 169 160 147 145
269 275 287 288 303 309 316 321 328 335 357 348 12 347 312 334 260 211 202 200 172 218 208 222 241 146 174 180 187 319 193 238 262 77 280 277 266 288 29 342 321 295 224 202 221 184 187 182 177 169 165 150 143 144
264 277 289 287 302 307 316 317 328 341 318 303 300 299 297 299 229 235 194 206 218 93 29 285 103 327 108 329 252 203 215 210 258 341 287 261 260 1 342 326 320 312 247 198 194 183 183 174 169 161 148 142 143 135
261 278 289 282 301 304 311 318 325 316 322 285 248 284 251 192 270 314 99 46 76 359 1 353 103 351 170 240 81 214 214 247 275 254 246 247 323 326 356 331 327 334 278 163 155 138 144 142 149 148 144 144 135 136
257 275 281 279 297 298 307 319 329 318 280 265 282 257 274 145 119 55 19 4 17 315 339 328 307 25 22 127 85 217 69 290 257 247 250 316 350 337 337 343 323 4 94 119 127 123 124 132 141 143 145 145 144 142
255 271 275 278 291 279 307 321 244 238 245 235 244 249 246 96 226 321 287 290 280 283 322 286 259 219 100 92 177 92 227 247 236 259 352 341 335 334 341 347 337 333 119 118 129 137 136 135 134 126 137 141 138 136
248 280 276 269 234 288 323 305 204 225 211 214 215 172 201 252 204 350 25 326 279 332 274 230 250 158 226 178 174 209 220 232 58 337 320 327 330 339 344 342 339 327 253 134 142 146 150 143 140 135 132 134 138 139
221 235 262 200 266 307 322 227 224 215 230 221 207 222 98 328 273 5 342 335 347 305 215 293 203 198 81 189 228 197 218 336 323 315 320 318 320 322 326 330 334 326 280 158 143 147 146 137 135 136 132 133 129 128
205 223 229 232 281 308 209 224 241 214 221 225 221 186 177 174 275 280 203 340 328 336 305 66 321 225 218 213 222 62 356 335 317 319 317 319 317 325 326 325 338 327 306 199 150 132 137 148 147 138 130 129 121 122
213 220 234 232 244 244 219 205 298 241 202 232 266 236 187 221 289 303 297 296 286 292 302 258 241 225 213 62 18 342 325 321 312 315 310 313 331 333 332 328 329 357 24 159 167 162 161 163 149 144 143 143 135 137
207 231 199 202 198 149 225 198 274 250 199 129 204 236 242 155 355 344 309 282 241 222 227 228 247 85 96 101 302 295 298 305 308 308 311 323 339 333 338 340 323 331 155 152 149 142 127 123 138 148 151 145 139 141
173 156 156 166 130 109 344 184 197 260 333 249 302 254 261 266 255 199 173 50 243 226 241 243 177 150 240 276 271 273 287 294 293 294 298 303 312 314 309 295 216 221 211 191 184 183 172 161 156 155 148 143 138 138
158 158 108 137 93 103 221 51 338 113 178 126 215 248 235 208 181 189 351 206 227 239 227 184 148 334 307 328 320 302 293 295 286 289 292 292 298 300 292 272 215 196 228 215 202 188 171 155 153 151 142 136 136 134
136 119 98 126 166 206 168 121 191 189 192 179 194 237 221 213 176 118 240 225 252 233 172 157 141 253 275 293 288 290 284 292 286 289 293 296 295 291 282 267 244 201 175 207 197 170 162 161 156 145 142 141 138 135
105 103 173 200 215 176 147 166 157 149 173 202 203 235 213 199 307 217 252 235 207 168 190 182 204 289 268 241 274 296 299 295 290 287 283 293 296 294 283 267 256 228 194 167 169 168 165 163 158 153 150 149 147 144
124 183 203 200 189 151 183 168 176 195 218 188 195 221 177 218 243 237 236 248 204 208 204 193 215 236 264 287 287 288 284 281 284 287 285 284 286 291 280 257 251 240 189 159 167 168 168 165 164 158 156 153 149 146
199 177 188 191 166 193 181 166 194 191 166 173 213 107 190 186 237 243 226 211 205 199 196 202 218 255 262 251 276 282 288 280 283 275 280 271 266 279 288 265 230 221 209 190 169 170 170 167 163 158 153 156 154 144
198 188 189 239 151 126 130 77 113 176 181 188 174 166 156 211 234 242 228 207 203 196 194 199 219 242 263 277 275 277 279 271 255 262 277 278 275 269 263 266 250 235 211 196 181 174 170 167 160 154 150 156 158 155
184 166 174 172 158 198 149 176 187 202 189 175 145 182 190 205 232 211 196 162 192 203 235 251 257 260 262 265 271 276 275 272 275 275 278 273 263 257 256 259 254 245 233 197 186 176 170 162 157 152 151 148 146 150
172 151 132 136 127 199 216 196 210 203 147 169 182 206 228 226 271 219 209 215 241 255 268 272 269 269 276 280 276 274 270 263 270 274 276 277 281 259 263 252 228 214 197 187 182 170 164 160 155 151 148 145 146 151
161 169 130 155 175 211 199 184 100 61 247 330 324 291 258 253 253 253 248 244 237 251 266 282 287 279 277 290 290 287 278 263 247 243 257 260 273 284 288 246 204 182 175 167 163 159 155 147 140 138 137 135 136 140
128 125 113 164 218 66 47 350 300 192 19 314 355 245 281 319 303 267 248 247 241 266 294 289 289 290 288 292 288 289 291 291 271 258 254 259 261 265 273 213 176 165 160 158 155 146 138 136 136 134 136 134 136 141
145 162 146 173 176 92 148 256 79 268 329 276 224 246 282 274 267 227 215 194 245 272 284 308 306 305 314 306 298 284 275 277 279 281 278 267 237 236 207 178 163 153 147 140 139 139 135 135 135 135 132 131 140 146
98 87 81 116 135 161 156 157 100 292 240 251 242 215 247 265 257 317 262 230 241 279 303 316 324 328 330 329 324 318 305 300 293 283 256 211 197 178 162 154 150 144 140 140 140 138 134 133 132 130 132 136 140 142